Météo par heure à Al Hillah

Ce jour, 23 Octobre, Vendredi

Heure Température Précipitation Vent Pression Humidité
00:00 +27°C° 0 mm 5 m/s 757 mmHg 22%
01:00 +26°C° 0 mm 5 m/s 756 mmHg 24%
02:00 +26°C° 0 mm 5 m/s 756 mmHg 27%
03:00 +25°C° 0 mm 5 m/s 757 mmHg 30%
04:00 +24°C° 0 mm 6 m/s 757 mmHg 31%
05:00 +23°C° 0 mm 6 m/s 757 mmHg 33%
06:00 +23°C° 0 mm 6 m/s 757 mmHg 34%
07:00 +26°C° 0 mm 6 m/s 757 mmHg 30%
08:00 +29°C° 0 mm 6 m/s 757 mmHg 25%
09:00 +32°C° 0 mm 7 m/s 758 mmHg 20%
10:00 +35°C° 0 mm 7 m/s 757 mmHg 17%
11:00 +38°C° 0 mm 8 m/s 757 mmHg 13%
12:00 +40°C° 0 mm 8 m/s 756 mmHg 9%
13:00 +40°C° 0 mm 8 m/s 756 mmHg 9%
14:00 +40°C° 0 mm 8 m/s 756 mmHg 9%
15:00 +40°C° 0 mm 8 m/s 755 mmHg 8%
16:00 +32°C° 0 mm 4 m/s 756 mmHg 16%
17:00 +32°C° 0 mm 5 m/s 756 mmHg 14%
18:00 +32°C° 0 mm 5 m/s 755 mmHg 13%
19:00 +30°C° 0 mm 5 m/s 755 mmHg 14%
20:00 +29°C° 0 mm 5 m/s 756 mmHg 15%
21:00 +28°C° 0 mm 5 m/s 756 mmHg 16%
22:00 +27°C° 0 mm 5 m/s 756 mmHg 18%
23:00 +27°C° 0 mm 4 m/s 756 mmHg 20%

Demain, 24 Octobre, Samedi

Heure Température Précipitation Vent Pression Humidité
00:00 +26°C° 0 mm 4 m/s 755 mmHg 22%
01:00 +25°C° 0 mm 4 m/s 755 mmHg 22%
02:00 +25°C° 0 mm 4 m/s 755 mmHg 22%
03:00 +23°C° 0 mm 4 m/s 755 mmHg 22%
04:00 +23°C° 0 mm 4 m/s 755 mmHg 24%
05:00 +22°C° 0 mm 4 m/s 755 mmHg 26%
06:00 +22°C° 0 mm 4 m/s 755 mmHg 27%
07:00 +25°C° 0 mm 4 m/s 756 mmHg 24%
08:00 +28°C° 0 mm 3 m/s 756 mmHg 20%
09:00 +30°C° 0 mm 3 m/s 756 mmHg 17%
10:00 +32°C° 0 mm 2 m/s 756 mmHg 15%
11:00 +35°C° 0 mm 2 m/s 756 mmHg 13%
12:00 +36°C° 0 mm 1 m/s 755 mmHg 10%
13:00 +37°C° 0 mm 1 m/s 755 mmHg 10%
14:00 +38°C° 0 mm 2 m/s 755 mmHg 9%
15:00 +39°C° 0 mm 2 m/s 754 mmHg 8%
16:00 +36°C° 0 mm 2 m/s 755 mmHg 10%
17:00 +33°C° 0 mm 3 m/s 755 mmHg 13%
18:00 +29°C° 0 mm 3 m/s 755 mmHg 15%
19:00 +27°C° 0 mm 2 m/s 755 mmHg 16%
20:00 +26°C° 0 mm 2 m/s 755 mmHg 17%
21:00 +24°C° 0 mm 1 m/s 755 mmHg 18%
22:00 +23°C° 0 mm 1 m/s 755 mmHg 23%
23:00 +23°C° 0 mm 1 m/s 755 mmHg 29%

Après-demain, 25 Octobre, Dimanche

Heure Température Précipitation Vent Pression Humidité
00:00 +22°C° 0 mm 1 m/s 755 mmHg 34%
01:00 +22°C° 0 mm 1 m/s 755 mmHg 34%
02:00 +21°C° 0 mm 1 m/s 755 mmHg 33%
03:00 +21°C° 0 mm 1 m/s 755 mmHg 33%
04:00 +20°C° 0 mm 1 m/s 755 mmHg 36%
05:00 +20°C° 0 mm 1 m/s 755 mmHg 40%
06:00 +19°C° 0 mm 1 m/s 755 mmHg 44%
07:00 +23°C° 0 mm 1 m/s 756 mmHg 33%
08:00 +27°C° 0 mm 1 m/s 756 mmHg 22%
09:00 +31°C° 0 mm 1 m/s 757 mmHg 11%
10:00 +33°C° 0 mm 1 m/s 756 mmHg 9%
11:00 +35°C° 0 mm 1 m/s 756 mmHg 8%
12:00 +36°C° 0 mm 1 m/s 756 mmHg 7%
13:00 +37°C° 0 mm 1 m/s 755 mmHg 6%
14:00 +37°C° 0 mm 1 m/s 755 mmHg 6%
15:00 +37°C° 0 mm 1 m/s 754 mmHg 5%
16:00 +35°C° 0 mm 2 m/s 754 mmHg 8%
17:00 +31°C° 0 mm 2 m/s 754 mmHg 11%
18:00 +28°C° 0 mm 2 m/s 754 mmHg 14%
19:00 +26°C° 0 mm 2 m/s 754 mmHg 15%
20:00 +24°C° 0 mm 1 m/s 755 mmHg 17%
21:00 +23°C° 0 mm 1 m/s 755 mmHg 18%
22:00 +22°C° 0 mm 1 m/s 755 mmHg 17%
23:00 +22°C° 0 mm 1 m/s 755 mmHg 17%

, 26 Octobre, Lundi

Heure Température Précipitation Vent Pression Humidité
00:00 +21°C° 0 mm 2 m/s 755 mmHg 16%
01:00 +22°C° 0 mm 1 m/s 755 mmHg 16%
02:00 +21°C° 0 mm 1 m/s 755 mmHg 17%
03:00 +20°C° 0 mm 1 m/s 755 mmHg 17%
04:00 +21°C° 0 mm 1 m/s 755 mmHg 15%
05:00 +20°C° 0 mm 2 m/s 756 mmHg 14%
06:00 +21°C° 0 mm 2 m/s 756 mmHg 12%
07:00 +24°C° 0 mm 2 m/s 756 mmHg 10%
08:00 +27°C° 0 mm 2 m/s 757 mmHg 8%
09:00 +30°C° 0 mm 1 m/s 757 mmHg 7%
10:00 +32°C° 0 mm 1 m/s 757 mmHg 6%
11:00 +34°C° 0 mm 1 m/s 757 mmHg 5%
12:00 +36°C° 0 mm 1 m/s 756 mmHg 4%
13:00 +36°C° 0 mm 1 m/s 756 mmHg 4%
14:00 +37°C° 0 mm 1 m/s 756 mmHg 4%
15:00 +37°C° 0 mm 1 m/s 756 mmHg 4%
16:00 +35°C° 0 mm 2 m/s 756 mmHg 6%
17:00 +31°C° 0 mm 2 m/s 756 mmHg 8%
18:00 +28°C° 0 mm 2 m/s 756 mmHg 9%
19:00 +27°C° 0 mm 2 m/s 756 mmHg 10%
20:00 +26°C° 0 mm 2 m/s 756 mmHg 10%
21:00 +25°C° 0 mm 2 m/s 756 mmHg 10%
22:00 +24°C° 0 mm 2 m/s 756 mmHg 10%
23:00 +24°C° 0 mm 2 m/s 756 mmHg 10%

26 Octobre, Lundi

Heure Température Précipitation Vent Pression Humidité
00:00 +21°C° 0 mm 2 m/s 755 mmHg 16%
01:00 +22°C° 0 mm 1 m/s 755 mmHg 16%
02:00 +21°C° 0 mm 1 m/s 755 mmHg 17%
03:00 +20°C° 0 mm 1 m/s 755 mmHg 17%
04:00 +21°C° 0 mm 1 m/s 755 mmHg 15%
05:00 +20°C° 0 mm 2 m/s 756 mmHg 14%
06:00 +21°C° 0 mm 2 m/s 756 mmHg 12%
07:00 +24°C° 0 mm 2 m/s 756 mmHg 10%
08:00 +27°C° 0 mm 2 m/s 757 mmHg 8%
09:00 +30°C° 0 mm 1 m/s 757 mmHg 7%
10:00 +32°C° 0 mm 1 m/s 757 mmHg 6%
11:00 +34°C° 0 mm 1 m/s 757 mmHg 5%
12:00 +36°C° 0 mm 1 m/s 756 mmHg 4%
13:00 +36°C° 0 mm 1 m/s 756 mmHg 4%
14:00 +37°C° 0 mm 1 m/s 756 mmHg 4%
15:00 +37°C° 0 mm 1 m/s 756 mmHg 4%
16:00 +35°C° 0 mm 2 m/s 756 mmHg 6%
17:00 +31°C° 0 mm 2 m/s 756 mmHg 8%
18:00 +28°C° 0 mm 2 m/s 756 mmHg 9%
19:00 +27°C° 0 mm 2 m/s 756 mmHg 10%
20:00 +26°C° 0 mm 2 m/s 756 mmHg 10%
21:00 +25°C° 0 mm 2 m/s 756 mmHg 10%
22:00 +24°C° 0 mm 2 m/s 756 mmHg 10%
23:00 +24°C° 0 mm 2 m/s 756 mmHg 10%

27 Octobre, Mardi

Heure Température Précipitation Vent Pression Humidité
00:00 +23°C° 0 mm 2 m/s 756 mmHg 10%
01:00 +22°C° 0 mm 1 m/s 756 mmHg 10%
02:00 +22°C° 0 mm 1 m/s 756 mmHg 10%
03:00 +21°C° 0 mm 1 m/s 756 mmHg 10%
04:00 +21°C° 0 mm 1 m/s 756 mmHg 11%
05:00 +20°C° 0 mm 1 m/s 756 mmHg 11%
06:00 +18°C° 0 mm 0 m/s 757 mmHg 12%
07:00 +22°C° 0 mm 0 m/s 757 mmHg 10%
08:00 +26°C° 0 mm 0 m/s 757 mmHg 8%
09:00 +30°C° 0 mm 0 m/s 758 mmHg 6%
10:00 +31°C° 0 mm 0 m/s 758 mmHg 5%
11:00 +35°C° 0 mm 1 m/s 757 mmHg 5%
12:00 +37°C° 0 mm 1 m/s 757 mmHg 5%
13:00 +37°C° 0 mm 1 m/s 757 mmHg 5%
14:00 +38°C° 0 mm 2 m/s 756 mmHg 5%
15:00 +39°C° 0 mm 2 m/s 756 mmHg 6%
16:00 +36°C° 0 mm 3 m/s 756 mmHg 7%
17:00 +33°C° 0 mm 3 m/s 756 mmHg 8%
18:00 +29°C° 0 mm 3 m/s 756 mmHg 9%
19:00 +29°C° 0 mm 3 m/s 756 mmHg 10%
20:00 +28°C° 0 mm 3 m/s 756 mmHg 11%
21:00 +27°C° 0 mm 3 m/s 756 mmHg 12%
22:00 +26°C° 0 mm 3 m/s 756 mmHg 12%
23:00 +26°C° 0 mm 3 m/s 756 mmHg 13%

28 Octobre, Mercredi

Heure Température Précipitation Vent Pression Humidité
00:00 +25°C° 0 mm 3 m/s 756 mmHg 14%
01:00 +24°C° 0 mm 3 m/s 756 mmHg 14%
02:00 +24°C° 0 mm 3 m/s 756 mmHg 14%
03:00 +23°C° 0 mm 2 m/s 756 mmHg 15%
04:00 +21°C° 0 mm 2 m/s 756 mmHg 15%
05:00 +21°C° 0 mm 2 m/s 757 mmHg 15%
06:00 +20°C° 0 mm 2 m/s 757 mmHg 15%
07:00 +25°C° 0 mm 2 m/s 757 mmHg 13%
08:00 +28°C° 0 mm 2 m/s 757 mmHg 11%
09:00 +31°C° 0 mm 2 m/s 758 mmHg 8%
10:00 +34°C° 0 mm 2 m/s 757 mmHg 7%
11:00 +36°C° 0 mm 2 m/s 757 mmHg 7%
12:00 +37°C° 0 mm 1 m/s 757 mmHg 6%
13:00 +37°C° 0 mm 1 m/s 757 mmHg 6%
14:00 +39°C° 0 mm 1 m/s 756 mmHg 6%
15:00 +39°C° 0 mm 1 m/s 756 mmHg 6%
16:00 +36°C° 0 mm 2 m/s 756 mmHg 7%
17:00 +32°C° 0 mm 2 m/s 756 mmHg 9%
18:00 +29°C° 0 mm 3 m/s 756 mmHg 10%
19:00 +28°C° 0 mm 2 m/s 756 mmHg 11%
20:00 +27°C° 0 mm 2 m/s 756 mmHg 11%
21:00 +26°C° 0 mm 2 m/s 756 mmHg 12%
22:00 +25°C° 0 mm 2 m/s 756 mmHg 12%
23:00 +25°C° 0 mm 2 m/s 756 mmHg 12%
Voir plus

Nous avons besoin de votre consentement

Meteoprog et ses fournisseurs de services peuvent stocker et accéder à des données personnelles telles que des cookies, des identifiants d'appareils ou d'autres technologies similaires sur votre appareil et traiter ces données pour personnaliser le contenu et les publicités, ainsi que pour fournir des fonctionnalités de médias sociaux et analyser le trafic.

  • Stocker et/ou accéder à des informations sur votre appareil

    Des cookies, des identifiants d'appareils ou d'autres informations peuvent être stockés ou accessibles sur votre appareil aux fins indiquées ci-dessus.

  • Annonces et contenus personnalisés, mesure des annonces et des contenus, connaissance de l'audience et développement de produits

    Les annonces et le contenu peuvent être personnalisés en fonction d'un profil. D'autres données peuvent être ajoutées pour mieux personnaliser les annonces et le contenu. Les performances des publicités et du contenu peuvent être mesurées. Il est possible d'obtenir des informations sur le public qui a vu les publicités et le contenu. Ces données peuvent être utilisées pour développer ou améliorer l'expérience de l'utilisateur, les systèmes et les logiciels.

En cliquant sur "J'accepte", vous autorisez l'utilisation de cookies, des identifiants d'appareils, des balises web ou d'autres technologies similaires. Vos paramètres peuvent être modifiés dans le navigateur de votre appareil.

Dans certains cas, des intérêts légitimes peuvent être invoqués plutôt qu'un consentement. Vous pouvez en savoir plus à ce sujet dans notre Politique de confidentialité et de cookies.